Location: Unspecified
(0.0000°N, 0.0000°E)
Time: 00:55:55
(UTC+00:00)

Explorer 11/Cluster Stage 4 - All Passes

Search period start: 04 May 2015 00:00
Search period end: 14 May 2015 00:00
Orbit: 467 x 1273 km, 28.8° (Epoch: 02 May)

Date Brightness Start Highest point End Pass type
(mag) Time Alt. Az. Time Alt. Az. Time Alt. Az.
04 May - 03:05:44 10° S 03:07:52 14° SSE 03:10:22 10° ESE visible
04 May - 04:51:34 10° SW 04:56:23 78° SSE 05:02:31 10° ENE visible
04 May - 06:40:46 10° W 06:45:41 27° NNW 06:51:26 10° NNE daylight
04 May - 08:35:01 10° NNW 08:36:11 10° NNW 08:37:09 10° N daylight
04 May - 14:05:56 10° NNW 14:10:56 18° NNE 14:15:47 10° ENE daylight
04 May - 15:53:51 10° NW 16:01:10 50° NNE 16:07:13 10° ESE daylight
04 May - 17:43:56 10° WNW 17:50:18 43° SSW 17:55:24 10° SE daylight
05 May - 02:56:50 10° S 02:59:30 17° SSE 03:02:36 10° ESE visible
05 May - 04:43:19 10° WSW 04:47:57 82° NNW 04:53:52 10° ENE visible
05 May - 06:33:02 10° WNW 06:37:21 22° NNW 06:42:17 10° NNE daylight
05 May - 13:56:44 10° NNW 14:02:34 22° NNE 14:08:08 10° ENE daylight
05 May - 15:44:58 10° NW 15:52:40 62° NNE 15:59:02 10° ESE daylight
05 May - 17:35:30 10° W 17:41:47 36° SSW 17:46:53 10° SSE daylight
06 May - 02:48:06 10° SSW 02:51:08 21° SSE 02:54:39 10° E visible
06 May - 04:35:08 10° WSW 04:39:34 62° NNW 04:45:09 10° NE visible
06 May - 06:25:29 10° WNW 06:29:05 17° NNW 06:33:00 10° NNE daylight
06 May - 13:47:38 10° NNW 13:54:08 26° NNE 14:00:18 10° ENE daylight
06 May - 15:36:10 10° NW 15:44:08 75° NNE 15:50:45 10° ESE daylight
06 May - 17:27:09 10° W 17:33:17 30° SSW 17:38:19 10° SSE daylight
07 May - 02:39:28 10° SSW 02:42:45 26° SSE 02:46:34 10° E visible
07 May - 04:27:02 10° WSW 04:31:13 45° NNW 04:36:23 10° NE visible
07 May - 06:18:19 10° NW 06:20:50 13° NNW 06:23:25 10° N daylight
07 May - 11:52:27 10° N 11:54:53 12° NNE 11:57:38 10° NE daylight
07 May - 13:38:36 10° NNW 13:45:39 31° NNE 13:52:20 10° E daylight
07 May - 15:27:26 10° WNW 15:35:33 90° NNE 15:42:24 10° ESE daylight
07 May - 17:18:54 10° W 17:24:46 26° SSW 17:29:41 10° SSE daylight
08 May - 02:30:56 10° SW 02:34:24 34° SSE 02:38:22 10° E visible
08 May - 04:19:03 10° W 04:22:55 33° NNW 04:27:32 10° NE visible
08 May - 11:42:58 10° N 11:46:32 14° NNE 11:50:27 10° NE daylight
08 May - 13:29:40 10° NW 13:37:08 37° NNE 13:44:14 10° E daylight
08 May - 15:18:45 10° WNW 15:26:57 77° SSW 15:33:58 10° SE daylight
08 May - 17:10:44 10° W 17:16:17 22° SSW 17:20:58 10° SSE daylight
09 May - 02:22:28 10° SW 02:26:02 47° SSE 02:30:05 10° ENE visible
09 May - 04:11:11 10° W 04:14:38 24° NNW 04:18:36 10° NNE visible
09 May - 11:33:45 10° N 11:38:10 16° NNE 11:42:56 10° ENE daylight
09 May - 13:20:47 10° NW 13:28:34 44° NNE 13:36:03 10° E daylight
09 May - 15:10:08 10° WNW 15:18:19 65° SSW 15:25:27 10° SE daylight
09 May - 17:02:41 10° WSW 17:07:48 19° SSW 17:12:10 10° SSE daylight
10 May - 02:14:05 10° SW 02:17:42 68° SSE 02:21:44 10° ENE night (unlit)
10 May - 04:03:30 10° WNW 04:06:23 18° NNW 04:09:32 10° NNE visible
10 May - 11:24:40 10° NNW 11:29:44 18° NNE 11:35:13 10° ENE daylight
10 May - 13:11:57 10° NW 13:19:58 52° NNE 13:27:45 10° ESE daylight
10 May - 15:01:36 10° WNW 15:09:41 54° SSW 15:16:53 10° SE daylight
10 May - 16:54:45 10° WSW 16:59:21 16° SSW 17:03:18 10° S daylight
11 May - 00:19:34 10° S 00:20:57 12° SSE 00:22:26 10° SE night (unlit)
11 May - 02:05:45 10° WSW 02:09:22 83° NNW 02:13:19 10° ENE night (unlit)
11 May - 03:56:09 10° NW 03:58:09 13° NNW 04:00:11 10° N visible
11 May - 11:15:41 10° NNW 11:21:15 21° NNE 11:27:20 10° ENE daylight
11 May - 13:03:12 10° NW 13:11:19 62° NNE 13:19:22 10° ESE daylight
11 May - 14:53:08 10° WNW 15:01:03 46° SSW 15:08:14 10° SE daylight
11 May - 16:47:00 10° WSW 16:50:56 14° SSW 16:54:18 10° S daylight
12 May - 00:10:17 10° SSW 00:12:40 16° SSE 00:15:04 10° ESE night (unlit)
12 May - 01:57:31 10° WSW 02:01:03 56° NNW 02:04:49 10° NE night (unlit)
12 May - 11:06:47 10° NNW 11:12:45 25° NNE 11:19:18 10° E daylight
12 May - 12:54:30 10° NW 13:02:40 73° NNE 13:10:53 10° ESE daylight
12 May - 14:44:46 10° W 14:52:26 39° SSW 14:59:31 10° SE daylight
12 May - 16:39:29 10° SW 16:42:32 12° SSW 16:45:07 10° S daylight
13 May - 00:01:21 10° SSW 00:04:24 22° SSE 00:07:19 10° E night (unlit)
13 May - 01:49:22 10° W 01:52:45 38° NNW 01:56:15 10° NE night (unlit)
13 May - 10:57:57 10° NNW 11:04:12 29° NNE 11:11:10 10° E daylight
13 May - 12:45:54 10° WNW 12:53:59 85° NNE 13:02:20 10° ESE daylight
13 May - 14:36:29 10° W 14:43:50 33° SSW 14:50:44 10° SSE daylight
13 May - 16:32:28 10° SW 16:34:10 11° SSW 16:35:29 10° SSW daylight
13 May - 23:52:33 10° SW 23:56:07 31° SSE 23:59:24 10° E night (unlit)
